Regional Weather Roundup
Issued by NWS San Diego, CA

Home | Current Version | Previous Version | Text Only | Print | Product List | Glossary On
Versions: 1 2 3 4 5 6 7 8 9 10 11 12 13 14 15 16 17 18 19 20 21 22 23 24 25 26 27 28 29 30 31 32 33 34 35 36 37 38 39 40 41 42 43 44 45 46 47 48 49 50
000
ASUS46 KSGX 202210
RWRSGX

SAN DIEGO HOURLY WEATHER ROUNDUP
NATIONAL WEATHER SERVICE SAN DIEGO CA
300 PM PDT SUN APR 20 2014

NOTE: "FAIR" INDICATES FEW OR NO CLOUDS BELOW 12,000 FEET WITH NO
SIGNIFICANT WEATHER AND/OR OBSTRUCTIONS TO VISIBILITY.

CAZ042-043-060-061-PZZ750-775-202300-

GREATER SAN DIEGO AREA

CITY           SKY/WX    TMP DP  RH WIND       PRES   REMARKS
LINDBERGH FLD  MOSUNNY   67  55  65 W9        30.05F
NATIONAL CITY    N/A     68  59  73 NW3       30.05F
CHULA VISTA      N/A     73  61  67 W6        29.98F
IMPERIAL BEACH CLOUDY    65  56  72 W10       30.05F
BROWN FIELD    SUNNY     69  55  60 W9        30.03F
MIRAMAR MCAS   MOSUNNY   71  54  54 W9        30.00F
MONTGOMERY FLD SUNNY     69  56  62 W7        30.04F

$$

NORTH SAN DIEGO COUNTY

CITY           SKY/WX    TMP DP  RH WIND       PRES   REMARKS
CAMP PENDLETON SUNNY     73  55  53 SW9       30.02F
RED BEACH      FAIR      68  56  65 W9        30.03F
OCEANSIDE AP   SUNNY     68  56  65 W8        30.02F
VISTA            N/A     70  58  66 W3        30.01F
CARLSBAD       SUNNY     64  56  75 W7        30.03F
DEL MAR          N/A     65  58  77 CALM      30.05F
LA JOLLA SCRIP   N/A     62  58  87 W3        30.02F
FALLBROOK        N/A     75  60  59 SW6       30.01F
ESCONDIDO        N/A     77  57  49 W8        30.02F
SAN MARCOS       N/A     74  58  57 W9        30.01F
POWAY            N/A     77  58  52 SW7       30.03F
R. PENASQUITOS   N/A     72  58  60 CALM      30.04F

$$

EAST SAN DIEGO COUNTY

CITY           SKY/WX    TMP DP  RH WIND       PRES   REMARKS
RAMONA         SUNNY     77  53  43 NW8       30.03F
SANTEE LAKES     N/A     76  59  57 SW9       29.79
GILLESPIE FLD  FAIR      79  54  41 NW13      30.03F
LA MESA          N/A     72  60  64 NW8       29.97F
JAMUL            N/A     74  59  59 W9        30.00F
DESCANSO N       N/A     77  51  39 W3        29.91F
MT. LAGUNA OBS   N/A     62  37  40 CALM      29.77
CAMPO            N/A     84  46  26 NW14G20   30.00S

$$

ORANGE COUNTY AND THE LOS ANGELES BASIN

CITY           SKY/WX    TMP DP  RH WIND       PRES   REMARKS
JOHN WAYNE AP  MOSUNNY   72  56  57 S10       30.02F
LAGUNA BEACH     N/A     69  60  73 CALM      30.01F
LAKE FOREST FR   N/A     80  50  34 W5        29.93S
SANTA ANA        N/A     79  61  54 SW2       29.97F
LOS ALAMITOS   SUNNY     72  57  59 SW12      30.02F
FULLERTON      SUNNY     76  57  51 S8        30.00F
LONG BEACH     SUNNY     72  53  51 S8        30.02F
L.A. AP        MOSUNNY   67  55  65 SW13      30.04F
L.A. DOWNTOWN  SUNNY     72  56  57 CALM      30.01F

$$

THE INLAND EMPIRE

CITY           SKY/WX    TMP DP  RH WIND       PRES   REMARKS
CORONA         SUNNY     82  55  39 W15G23    30.00F
CHINO          MOSUNNY   83  53  35 W13       30.01F
ONTARIO        MOSUNNY   84  50  30 W13       30.00F
SAN BERNARDINO MOSUNNY   84  41  21 SW9       30.00F
RIVERSIDE AP   SUNNY     84  50  30 W14       29.99F
RIV CYN CREST    N/A     83  59  44 W5        29.97F
MORENO VALLEY    N/A     87  54  32 W5        28.10F
MARCH ARB      SUNNY     84  50  30 NW15      30.01F
HORSETHIEF CYN   N/A     83  46  27 NW7       30.00F
PERRIS           N/A     84  50  30 W7          N/A
MENIFEE          N/A     87  51  28 NE3       30.04F
HEMET EAST       N/A     86  43  21 CALM      29.98F
FRENCH VALLEY  NOT AVBL
TEMECULA         N/A     81  55  41 S7        29.96F

$$

SAN BERNARDINO AND RIVERSIDE COUNTY MOUNTAINS

CITY           SKY/WX    TMP DP  RH WIND       PRES   REMARKS
BIG BEAR AP    MOSUNNY   63  30  29 W12       30.25S
BIG BEAR SHEA    N/A     64  26  24 N6        30.10S
ANGELUS OAKS     N/A     67  38  33 CALM      29.97F
PINE COVE        N/A     67  40  36 W1        30.03F

$$

SOUTHERN DESERT INCLUDING THE COACHELLA VALLEY

CITY           SKY/WX    TMP DP  RH WIND       PRES   REMARKS
PALM SPRINGS   MOSUNNY   92  45  19 SE12      29.94F
THOUSAND PALMS   N/A     90  47  22 CALM      29.90F
PALM DESERT      N/A     93  49  21 CALM      29.95S
THERMAL        SUNNY     93  44  18 SE14      29.89F
BLYTHE         SUNNY     93  41  16 VRB7      29.92F
IMPERIAL AP    SUNNY     93  45  19 E9        29.91F
EL CENTRO NAS  SUNNY     92  42  17 SE7       29.91F
YUMA AZ        SUNNY     93  39  15 NW9       29.93F
MEXICALI       SUNNY     91  39  16 CALM      29.93

$$

UPPER DESERT

CITY           SKY/WX    TMP DP  RH WIND       PRES   REMARKS
VICTORVILLE AP MOSUNNY   84  23  10 SE7G16    30.04F
HESPERIA         N/A     83  35  18 SW6       30.09F
GRAY BUTTE AP  NOT AVBL
PALMDALE       SUNNY     84  35  17 MISG      30.02F
LANCASTER      SUNNY     85  34  16 W15       30.02F
EDWARDS AFB    MOSUNNY   85  29  13 VRB7      29.99F
DAGGETT        SUNNY     88  27  11 MISG      29.98F
29 PALMS N     SUNNY     88  36  15 SE10      30.05F
NEEDLES        SUNNY     95  34  11 VRB6      29.92F

$$

REGIONAL REPORTS

CITY           SKY/WX    TMP DP  RH WIND       PRES   REMARKS
SANTA BARBARA  SUNNY     69  53  56 VRB6      30.02F
SANDBERG       SUNNY     71  38  29 N14       30.17R
MT. WILSON       N/A     66  46  48 SW8         N/A
LAS VEGAS NV   MOSUNNY   90  32  12 VRB6      29.92F
PHOENIX AZ     MOSUNNY   89  35  14 W7        29.94F
TIJUANA        SUNNY     68  54  60 SW9       30.05F

$$

OFFSHORE ISLANDS

CITY           SKY/WX    TMP DP  RH WIND       PRES   REMARKS
CATALINA ARPT  SUNNY     65  55  70 SW7       30.08S
SAN NICOLAS IS SUNNY     63  56  78 NW8       30.05F

$$

MARINE AND OFFSHORE BUOY REPORTS

STATION/POSITION SKY/WX   TEMP    WIND        PRES    SWELL
                          AIR SEA DIR/SP/G            HT/PER/DIR
                          (F)     (DEG/KT/KT) (MB)    (FT/S/D)
S CLEMENTE BASIN           59 63  280/  8/ 12 1017.5F   5/180/16
SAN NICOLAS IS.               59                N/A     5/310/13
SO. S. ROSA ISLA           55 58  300/ 10/ 12 1017.7F   5/16
W. S. BARBARA CH           53 55  300/ 12/ 12 1017.1F   7/320/17
S. MONICA BASIN            61 63  250/  6/  8 1017.3F   3/180/16
S PEDRO CHANNEL               63                N/A     2/170/17
DANA POINT                    64                N/A     3/180/17
CMP PENDLETON NS              64                N/A     2/210/17
OCEANSIDE OFFSHR              63                N/A     3/180/17
TORREY PINES OTR              64                N/A     2/190/17
LA JOLLA 1                 62 56  270/  6/  7 1017.4F
MISSION BAY BUOY              63                N/A     3/310/13
SAN DIEGO BAY                 66              1017.6S
POINT LOMA SOUTH              64                N/A     3/190/15

$$




USA.gov is the U.S. government's official web portal to all federal, state and local government web resources and services.